TimeCST,TemperatureF,Dew PointF,Humidity,Sea Level PressureIn,VisibilityMPH,Wind Direction,Wind SpeedMPH,Gust SpeedMPH,PrecipitationIn,Events,Conditions,WindDirDegrees,DateUTC
12:06 AM,3.2,1.4,92,30.09,10.0,NNE,3.5,-,N/A,Snow,Light Snow,20,2013-12-22 06:06:00
12:26 AM,3.2,-0.4,85,30.09,5.0,Calm,Calm,-,N/A,Snow,Light Snow,0,2013-12-22 06:26:00
12:46 AM,3.2,-0.4,85,30.09,3.0,North,3.5,-,N/A,Snow,Light Snow,360,2013-12-22 06:46:00
1:06 AM,3.2,-0.4,85,30.10,2.0,North,3.5,-,N/A,Snow,Light Snow,10,2013-12-22 07:06:00
1:26 AM,3.2,-0.4,85,30.09,1.2,North,3.5,-,N/A,Snow,Light Snow,360,2013-12-22 07:26:00
1:46 AM,3.2,-0.4,85,30.09,2.0,North,4.6,-,N/A,Snow,Light Snow,360,2013-12-22 07:46:00
2:06 AM,3.2,-0.4,85,30.09,2.5,Calm,Calm,-,N/A,Snow,Light Snow,0,2013-12-22 08:06:00
2:26 AM,3.2,-0.4,85,30.09,2.5,North,3.5,-,N/A,Snow,Light Snow,10,2013-12-22 08:26:00
2:46 AM,3.2,-0.4,85,30.10,2.0,North,3.5,-,N/A,Snow,Light Snow,350,2013-12-22 08:46:00
3:06 AM,1.4,-0.4,92,30.10,2.0,Calm,Calm,-,N/A,Snow,Light Snow,0,2013-12-22 09:06:00
3:26 AM,1.4,-0.4,92,30.10,2.5,Calm,Calm,-,N/A,Snow,Light Snow,0,2013-12-22 09:26:00
3:46 AM,1.4,-2.2,85,30.11,2.5,NNE,4.6,-,N/A,Snow,Light Snow,20,2013-12-22 09:46:00
4:06 AM,1.4,-2.2,85,30.10,2.5,North,3.5,-,N/A,Snow,Light Snow,10,2013-12-22 10:06:00
4:26 AM,1.4,-2.2,85,30.11,1.2,North,4.6,-,N/A,Snow,Light Snow,360,2013-12-22 10:26:00
4:46 AM,1.4,-2.2,85,30.11,1.8,Calm,Calm,-,N/A,Snow,Light Snow,0,2013-12-22 10:46:00
5:06 AM,1.4,-2.2,85,30.12,2.0,Calm,Calm,-,N/A,Snow,Light Snow,0,2013-12-22 11:06:00
5:26 AM,1.4,-2.2,85,30.11,5.0,North,4.6,-,N/A,Snow,Light Snow,10,2013-12-22 11:26:00
5:46 AM,1.4,-2.2,85,30.12,3.0,North,3.5,-,N/A,Snow,Light Snow,10,2013-12-22 11:46:00
6:06 AM,1.4,-2.2,85,30.12,2.5,North,3.5,-,N/A,Snow,Light Snow,350,2013-12-22 12:06:00
6:26 AM,-0.4,-2.2,92,30.13,3.0,North,4.6,-,N/A,Snow,Light Snow,10,2013-12-22 12:26:00
6:46 AM,-0.4,-2.2,92,30.13,1.8,Calm,Calm,-,N/A,Snow,Light Snow,0,2013-12-22 12:46:00
7:06 AM,-0.4,-2.2,92,30.13,1.8,North,3.5,-,N/A,Snow,Light Snow,360,2013-12-22 13:06:00
7:26 AM,-0.4,-2.2,92,30.12,1.5,Calm,Calm,-,N/A,Snow,Light Snow,0,2013-12-22 13:26:00
7:46 AM,-0.4,-2.2,92,30.12,2.0,Calm,Calm,-,N/A,Snow,Light Snow,0,2013-12-22 13:46:00
8:06 AM,-0.4,-4.0,85,30.12,4.0,NNE,4.6,-,N/A,Snow,Light Snow,20,2013-12-22 14:06:00
8:26 AM,-0.4,-4.0,85,30.13,4.0,North,4.6,-,N/A,Snow,Light Snow,360,2013-12-22 14:26:00
8:46 AM,-0.4,-2.2,92,30.12,4.0,North,5.8,-,N/A,Snow,Light Snow,350,2013-12-22 14:46:00
9:06 AM,-0.4,-2.2,92,30.13,3.0,North,3.5,-,N/A,Snow,Light Snow,10,2013-12-22 15:06:00
9:26 AM,-0.4,-2.2,92,30.13,4.0,North,3.5,-,N/A,Snow,Light Snow,10,2013-12-22 15:26:00
9:46 AM,1.4,-2.2,85,30.13,7.0,North,4.6,-,N/A,Snow,Light Snow,350,2013-12-22 15:46:00
10:06 AM,1.4,-2.2,85,30.14,4.0,NNE,3.5,-,N/A,Snow,Light Snow,30,2013-12-22 16:06:00
10:26 AM,1.4,-2.2,85,30.14,2.5,North,3.5,-,N/A,Snow,Light Snow,350,2013-12-22 16:26:00
10:46 AM,1.4,-2.2,85,30.14,1.8,North,3.5,-,N/A,Snow,Light Snow,360,2013-12-22 16:46:00
11:06 AM,1.4,-2.2,85,30.14,2.0,North,4.6,-,N/A,Snow,Light Snow,350,2013-12-22 17:06:00
11:26 AM,1.4,-2.2,85,30.14,2.5,North,4.6,-,N/A,Snow,Light Snow,350,2013-12-22 17:26:00
11:46 AM,1.4,-2.2,85,30.14,4.0,North,6.9,-,N/A,Snow,Light Snow,360,2013-12-22 17:46:00
12:06 PM,1.4,-2.2,85,30.13,1.8,NNW,3.5,-,N/A,Snow,Light Snow,340,2013-12-22 18:06:00
12:26 PM,3.2,-2.2,78,30.14,2.0,North,3.5,-,N/A,Snow,Light Snow,350,2013-12-22 18:26:00
12:46 PM,3.2,-2.2,78,30.13,2.5,North,5.8,-,N/A,Snow,Light Snow,360,2013-12-22 18:46:00
1:06 PM,3.2,-2.2,78,30.13,3.0,North,4.6,-,N/A,Snow,Light Snow,360,2013-12-22 19:06:00
1:26 PM,3.2,-2.2,78,30.13,4.0,North,4.6,-,N/A,Snow,Light Snow,350,2013-12-22 19:26:00
1:46 PM,3.2,-2.2,78,30.13,7.0,NNW,4.6,-,N/A,Snow,Light Snow,340,2013-12-22 19:46:00
2:06 PM,3.2,-2.2,78,30.13,4.0,North,5.8,-,N/A,Snow,Light Snow,350,2013-12-22 20:06:00
2:26 PM,3.2,-2.2,78,30.14,4.0,North,4.6,-,N/A,Snow,Light Snow,350,2013-12-22 20:26:00
2:46 PM,3.2,-2.2,78,30.15,5.0,NNW,4.6,-,N/A,Snow,Light Snow,330,2013-12-22 20:46:00
3:06 PM,1.4,-4.0,78,30.16,3.0,North,3.5,-,N/A,Snow,Light Snow,350,2013-12-22 21:06:00
3:26 PM,-0.4,-5.8,78,30.17,4.0,Calm,Calm,-,N/A,Snow,Light Snow,0,2013-12-22 21:26:00
3:46 PM,-0.4,-5.8,78,30.18,7.0,NNW,3.5,-,N/A,Snow,Light Snow,330,2013-12-22 21:46:00
4:06 PM,-0.4,-5.8,78,30.19,10.0,NNW,3.5,-,N/A,Snow,Light Snow,340,2013-12-22 22:06:00
4:26 PM,-0.4,-5.8,78,30.19,5.0,Calm,Calm,-,N/A,Snow,Light Snow,0,2013-12-22 22:26:00
4:46 PM,-0.4,-5.8,78,30.20,2.0,NNW,4.6,-,N/A,Snow,Light Snow,340,2013-12-22 22:46:00
5:06 PM,-0.4,-5.8,78,30.21,2.0,NNW,4.6,-,N/A,Snow,Light Snow,340,2013-12-22 23:06:00
5:26 PM,-2.2,-5.8,85,30.22,4.0,North,3.5,-,N/A,Snow,Light Snow,350,2013-12-22 23:26:00
5:46 PM,-2.2,-5.8,85,30.22,2.5,NNW,6.9,-,N/A,Snow,Light Snow,330,2013-12-22 23:46:00
6:06 PM,-2.2,-7.6,78,30.23,2.0,NNW,5.8,-,N/A,Snow,Light Snow,330,2013-12-23 00:06:00
6:26 PM,-2.2,-7.6,78,30.24,3.0,NNW,4.6,-,N/A,Snow,Light Snow,330,2013-12-23 00:26:00
6:46 PM,-2.2,-7.6,78,30.24,3.0,North,4.6,-,N/A,Snow,Light Snow,360,2013-12-23 00:46:00
7:06 PM,-4.0,-7.6,85,30.25,2.5,North,4.6,-,N/A,Snow,Light Snow,350,2013-12-23 01:06:00
7:26 PM,-4.0,-7.6,85,30.26,2.5,NNW,3.5,-,N/A,Snow,Light Snow,340,2013-12-23 01:26:00
7:46 PM,-4.0,-7.6,85,30.26,4.0,Calm,Calm,-,N/A,Snow,Light Snow,0,2013-12-23 01:46:00
8:06 PM,-5.8,-9.4,84,30.26,2.0,NNW,3.5,-,N/A,Snow,Light Snow,330,2013-12-23 02:06:00
8:26 PM,-5.8,-9.4,84,30.26,7.0,North,4.6,-,N/A,Snow,Light Snow,350,2013-12-23 02:26:00
8:46 PM,-5.8,-9.4,84,30.26,10.0,North,3.5,-,N/A,Snow,Light Snow,350,2013-12-23 02:46:00
9:06 PM,-5.8,-9.4,84,30.26,3.0,NNW,3.5,-,N/A,Snow,Light Snow,330,2013-12-23 03:06:00
9:26 PM,-5.8,-9.4,84,30.27,7.0,NNW,3.5,-,N/A,Snow,Light Snow,330,2013-12-23 03:26:00
9:46 PM,-5.8,-9.4,84,30.27,5.0,NNW,3.5,-,N/A,Snow,Light Snow,330,2013-12-23 03:46:00
10:06 PM,-7.6,-9.4,92,30.27,5.0,NNW,3.5,-,N/A,Snow,Light Snow,340,2013-12-23 04:06:00
10:26 PM,-7.6,-11.2,84,30.27,4.0,NNW,3.5,-,N/A,Snow,Light Snow,340,2013-12-23 04:26:00
10:46 PM,-7.6,-11.2,84,30.28,5.0,NNW,3.5,-,N/A,Snow,Light Snow,340,2013-12-23 04:46:00
11:06 PM,-7.6,-11.2,84,30.29,5.0,NNW,3.5,-,N/A,Snow,Light Snow,340,2013-12-23 05:06:00
11:26 PM,-7.6,-11.2,84,30.29,10.0,North,3.5,-,N/A,Snow,Light Snow,350,2013-12-23 05:26:00
11:46 PM,-7.6,-11.2,84,30.29,7.0,NNW,3.5,-,N/A,Snow,Light Snow,340,2013-12-23 05:46:00